Regional Weather Roundup
Issued by NWS

Home | Current Version | Previous Version | Graphics & Text | Print | Product List | Glossary On
Versions: 1 2 3 4 5 6 7 8 9 10 11 12 13 14 15 16 17 18 19 20 21 22 23 24 25 26 27 28 29 30 31 32 33 34 35 36 37 38 39 40 41 42 43 44 45 46 47 48 49 50
000
ASUS43 KTOP 310859
RWRKS

WEATHER ROUNDUP FOR KANSAS
NATIONAL WEATHER SERVICE GOODLAND KS
400 AM CDT FRI JUL 31 2015

NOTE:  "FAIR" INDICATES FEW OR NO CLOUDS BELOW 12,000 FEET WITH NO
SIGNIFICANT WEATHER AND/OR OBSTRUCTIONS TO VISIBILITY.

KSZ001>006-013>018-027>032-041>047-311000-
NORTHWEST KANSAS

CITY           SKY/WX    TMP DP  RH WIND       PRES   REMARKS
GOODLAND       CLEAR     60  58  92 NW3       30.26R
HAYS           PTCLDY    70  61  73 CALM      30.19F
HILL CITY      CLEAR     71  68  90 W5        30.21R
RUSSELL        PTCLDY    69  67  93 S6        30.18S
$$

KSZ061>065-074>080-084>089-311000-
SOUTHWEST KANSAS

CITY           SKY/WX    TMP DP  RH WIND       PRES   REMARKS
DODGE CITY     MOCLDY    68  66  93 S3        30.21F
ELKHART          N/A     70  66  87 SE8         N/A
GARDEN CITY    PTCLDY    68  66  93 SE5       30.21F
GREAT BEND     PTCLDY    70  64  83 CALM      30.19S
LIBERAL        CLOUDY    72  66  83 S5        30.20F
$$

KSZ066>073-081>083-090>101-311000-
SOUTHEAST KANSAS

CITY           SKY/WX    TMP DP  RH WIND       PRES   REMARKS
CHANUTE        PTCLDY    69  67  93 CALM      30.15S
COFFEYVILLE    MOCLDY    73  70  90 N5        30.13S
HUTCHINSON     PTCLDY    68  65  90 E3        30.18S
MEDICINE LODGE   N/A     70  69  97 CALM      30.16S
NEWTON         CLEAR     70  63  78 CALM      30.20S
PARSONS        CLOUDY    70  69  97 CALM      30.15S
WICHITA INTL   MOCLDY    75  66  73 CALM      30.16S
WICHITA JABRA  PTCLDY    70  67  90 N5        30.16F
WINFIELD       PTCLDY    71  69  93 CALM      30.16S
$$

KSZ007>012-019>026-033>040-048>060-102>105-311000-
NORTHEAST KANSAS

CITY           SKY/WX    TMP DP  RH WIND       PRES   REMARKS
CONCORDIA      CLEAR     71  66  84 SW7       30.17F
EMPORIA        CLEAR     65  64  97 CALM      30.17F
LAWRENCE       PTCLDY    61  59  93 CALM      30.17S
MANHATTAN      CLEAR     64  63  96 CALM      30.16F
OLATHE IND     CLEAR     64  60  87 CALM      30.18S
OLATHE EXE     CLEAR     64  62  93 CALM      30.16F
SALINA         CLEAR     70  66  87 CALM      30.17F
TOPEKA BILLARD PTCLDY    65  64  97 CALM      30.16F
TOPEKA FORBES  FAIR      65  61  87 CALM      30.17S
$$


USA.gov is the U.S. government's official web portal to all federal, state and local government web resources and services.